GFSSW_250_spd_072.txt.gz
Wind_Speed
45 46 46 47 48 46 44 44 43 41 39 39 37 37 34 32 30 28 28 28 28 28 28 28 30 30 31 31 30 30 34 37 40 37 34 34 35 37 40 45 45 51 55 58 57
52 50 52 50 51 51 49 47 47 48 45 43 42 39 36 35 34 32 32 31 32 31 31 32 31 34 33 34 32 33 35 38 40 39 33 34 34 36 40 43 47 50 54 57 56
58 59 57 58 55 56 53 52 50 50 50 47 46 43 41 38 36 34 35 36 35 35 35 34 35 34 36 37 36 36 37 39 42 43 36 34 34 36 39 44 46 50 54 55 54
65 65 63 62 63 59 60 58 55 53 52 52 50 49 45 43 41 41 40 40 40 39 39 39 40 38 37 39 38 37 40 41 43 44 39 36 36 36 38 40 44 49 51 51 52
70 69 69 67 68 66 63 64 62 61 58 57 55 53 52 49 48 47 45 45 44 45 43 43 42 41 40 37 39 40 42 43 44 44 41 38 37 35 36 39 43 47 49 47 47
71 71 70 69 70 71 71 67 65 65 64 62 60 58 58 57 54 52 50 50 49 47 48 48 47 44 42 38 37 42 43 42 45 46 41 38 36 36 34 38 42 45 46 47 44
77 74 75 73 75 73 73 72 71 69 64 64 64 63 63 62 60 58 56 54 52 50 48 51 51 49 44 42 40 39 38 44 47 46 43 39 38 36 34 37 40 44 45 48 43
86 84 79 78 78 79 77 77 76 74 71 69 66 66 66 65 61 62 60 59 57 52 52 51 53 51 47 45 43 39 35 35 44 44 43 42 39 39 36 37 40 43 43 46 39
95 93 90 87 83 82 82 79 78 79 78 75 72 69 69 68 68 63 63 61 60 56 55 53 53 54 52 48 44 38 36 37 38 38 40 42 41 41 38 37 40 43 42 47 34
102 102 101 97 94 92 87 85 84 80 80 80 78 74 71 70 74 68 64 64 61 58 57 55 55 55 53 48 42 35 35 37 41 38 38 42 43 46 43 40 41 43 43 47 35
104 107 107 106 105 102 97 93 90 87 84 83 78 79 76 72 73 74 70 67 64 61 62 58 57 57 52 48 43 37 37 39 41 41 39 41 45 46 46 43 44 45 44 46 35
87 100 108 110 111 110 108 104 99 94 90 87 86 81 77 74 69 70 75 72 67 62 60 55 54 56 55 47 44 42 43 44 45 44 43 43 46 46 49 48 46 45 46 42 36
65 81 96 110 113 116 114 113 108 104 98 95 90 86 85 78 73 71 71 70 65 63 60 57 57 58 54 49 47 43 43 45 48 46 45 43 48 49 53 52 49 45 47 44 36
60 68 80 93 109 118 119 117 115 112 108 102 97 93 90 87 79 80 76 77 70 66 66 61 63 59 56 52 51 48 50 50 49 50 50 49 51 53 56 56 51 48 48 45 42
58 59 68 82 99 106 119 120 118 115 115 108 104 98 95 94 88 85 84 82 74 72 71 67 67 63 59 61 59 58 56 55 54 54 54 55 53 59 55 53 55 50 48 46 45
59 56 55 66 83 98 105 118 119 120 116 110 107 105 102 99 94 90 93 87 84 82 76 72 69 69 67 66 64 63 62 59 59 59 57 59 55 58 59 53 52 48 47 49 46
51 51 49 56 63 82 94 102 115 118 113 113 109 108 106 104 102 97 95 93 89 88 82 81 78 76 73 71 69 69 67 64 62 62 60 57 53 55 56 51 49 49 50 50 38
48 44 44 47 56 64 81 90 96 104 110 111 113 111 109 108 104 101 99 96 93 91 89 87 84 83 80 76 77 73 68 66 63 59 58 57 55 59 55 51 48 53 53 47 41
49 44 43 42 49 55 67 75 78 88 98 107 111 111 112 109 107 105 101 99 96 93 91 91 87 87 84 81 78 74 69 66 63 62 62 61 60 57 56 55 51 54 51 49 44
51 43 39 40 43 47 52 61 71 77 86 95 104 108 109 109 109 105 103 99 96 92 91 88 87 86 85 79 77 72 69 69 68 67 64 62 60 59 57 52 52 52 52 49 46
50 42 36 38 39 41 45 52 59 70 76 83 88 93 104 105 107 107 104 100 99 95 93 90 88 89 86 79 78 75 73 72 73 69 63 61 60 57 53 49 47 48 49 48 49
49 41 35 36 36 38 42 46 53 61 65 72 76 78 84 87 96 103 100 98 98 96 94 92 90 91 85 85 80 78 77 73 67 63 61 57 56 51 49 47 46 46 49 52 50
48 40 32 33 35 34 36 39 44 52 57 61 67 68 68 71 77 86 89 88 88 91 92 89 86 87 86 83 79 77 74 72 69 65 59 55 54 48 45 47 46 48 50 47 48
47 38 30 31 31 31 32 34 39 43 48 52 59 67 65 62 63 65 70 75 79 80 81 83 81 81 78 80 79 76 73 68 65 60 55 51 53 44 44 48 48 47 45 43 41
47 36 29 27 27 30 32 35 36 40 43 47 52 58 65 65 61 60 62 64 66 69 71 72 70 70 72 72 71 67 65 62 58 55 51 51 47 45 45 48 47 43 43 40 38
44 32 27 25 25 27 30 34 37 39 40 41 49 53 57 64 69 65 63 61 59 60 61 60 60 60 60 60 61 59 58 54 52 51 50 51 45 45 47 46 45 43 42 42 38
44 32 27 28 27 28 32 32 33 37 38 39 44 43 46 54 60 65 71 67 62 60 57 54 54 55 55 55 54 52 50 51 51 50 51 51 46 47 46 44 43 45 45 43 40

GFSSW_250_spd_075.txt.gz
Wind_Speed
43 42 43 44 45 42 41 40 40 40 40 40 39 38 37 35 34 32 31 30 30 32 31 31 29 32 34 37 36 35 33 34 35 37 41 42 38 37 37 39 43 47 50 52 54
48 48 47 47 47 48 47 46 46 45 45 44 43 41 41 40 38 37 34 33 32 32 34 35 34 34 36 38 38 37 37 37 37 38 41 43 39 36 35 36 41 45 49 52 54
55 54 52 50 50 52 51 52 49 50 49 47 47 45 44 45 43 39 38 37 36 34 34 36 38 37 36 37 39 38 39 39 38 39 40 42 40 36 35 34 40 44 48 53 53
61 64 61 60 56 55 57 55 56 54 54 53 52 50 49 47 46 43 42 41 41 38 38 37 40 42 40 39 40 36 38 39 40 39 41 44 40 35 34 34 39 43 47 51 51
68 67 68 68 66 65 62 62 62 61 59 58 57 55 54 53 51 49 47 45 45 45 41 42 43 44 44 42 41 40 38 39 43 43 44 45 40 33 33 33 37 40 46 50 52
75 74 74 74 73 74 71 70 68 68 66 66 63 62 60 58 54 53 51 51 50 50 48 48 48 47 45 45 44 43 40 41 44 44 44 45 40 34 31 32 36 40 43 46 53
79 81 83 82 81 79 78 76 76 74 74 71 71 69 65 65 62 58 57 55 53 52 51 50 50 49 49 49 47 47 41 43 45 45 45 44 42 35 33 34 35 37 42 44 51
85 85 86 87 87 87 86 85 83 82 80 78 75 74 74 70 67 64 62 59 56 54 53 54 54 52 51 49 50 48 44 45 46 45 45 44 42 39 35 34 34 36 41 42 46
94 94 93 92 91 91 90 87 87 87 86 85 81 78 77 74 74 71 66 63 60 57 55 55 58 56 53 50 47 47 46 47 49 45 45 44 41 40 38 35 31 34 38 41 43
85 92 97 98 100 99 97 95 92 90 89 87 89 86 79 79 77 76 71 66 65 61 58 58 58 57 54 51 48 49 48 46 49 45 44 46 43 41 40 35 34 34 38 40 41
59 73 87 95 99 105 104 104 105 100 92 90 90 89 86 83 78 79 79 73 69 64 62 63 59 60 57 53 50 49 46 46 48 43 37 43 44 42 43 40 37 36 39 40 39
42 46 62 74 86 93 99 106 108 109 102 99 96 89 90 84 83 78 78 79 76 68 67 64 60 65 61 57 54 51 47 46 46 44 39 41 43 43 46 45 44 41 41 40 39
48 52 51 54 63 78 86 89 103 109 108 107 103 98 94 90 88 83 76 75 75 74 70 66 63 67 62 58 55 53 50 51 47 45 41 41 46 47 50 51 49 46 47 45 41
52 53 51 47 56 63 77 87 93 102 112 108 110 104 104 96 92 90 82 80 78 72 68 66 65 64 57 54 52 51 52 51 50 49 47 45 49 52 53 55 53 51 52 52 46
60 61 57 56 61 57 68 76 92 95 98 110 113 110 104 104 94 94 93 89 83 78 74 68 67 68 60 54 58 54 56 54 56 54 51 50 52 53 55 57 58 58 54 52 51
59 63 61 61 62 60 57 66 79 92 97 100 112 109 110 103 103 101 98 93 91 90 82 74 73 72 66 66 65 61 60 58 57 57 56 56 56 54 63 57 57 59 56 54 50
63 65 60 65 61 56 53 53 68 81 90 96 99 111 113 110 107 106 101 99 96 94 86 83 80 78 74 72 69 67 66 62 60 61 60 61 62 57 63 60 54 59 57 57 54
68 66 63 64 67 53 47 50 49 65 80 88 94 100 110 113 110 109 105 101 98 96 93 89 86 83 80 77 76 72 70 68 65 65 66 67 63 66 62 60 58 61 61 60 54
68 70 66 61 60 49 43 43 48 56 65 72 83 90 97 110 112 112 108 103 100 100 97 95 89 89 86 82 81 77 74 71 70 68 69 69 66 66 62 61 63 61 59 57 52
69 71 62 57 55 47 39 41 47 52 52 58 70 80 88 98 106 111 109 105 101 100 98 98 96 94 90 87 83 80 78 76 74 71 68 67 65 66 63 63 65 58 57 54 51
74 74 65 59 55 45 38 39 43 43 51 59 64 71 76 86 98 99 106 105 104 101 100 97 97 93 97 86 87 85 80 75 74 68 66 61 60 71 66 63 63 60 55 52 49
75 73 67 61 51 42 36 33 34 39 44 47 52 60 62 72 76 88 92 100 102 100 101 97 98 95 97 87 85 82 78 74 71 67 65 65 63 73 62 64 62 54 50 52 49
73 73 66 61 48 39 31 31 33 34 35 40 46 55 60 62 66 71 78 88 84 96 96 96 97 94 94 88 85 81 79 76 73 73 70 65 61 72 65 58 54 51 50 49 49
74 75 71 62 46 35 29 29 30 30 29 34 40 45 50 54 60 63 62 61 67 80 81 88 91 91 89 86 85 81 83 79 77 71 65 61 61 66 55 54 55 50 49 50 51
74 77 74 60 45 34 28 28 28 28 27 30 34 38 45 48 52 55 60 60 60 60 63 68 73 80 82 80 81 77 75 72 68 64 64 58 66 67 57 55 53 51 50 52 53
78 77 71 56 42 32 27 26 28 27 26 27 34 38 40 41 46 51 54 56 59 58 62 61 59 62 63 69 72 67 68 66 63 59 57 57 52 41 59 54 51 51 52 52 52
80 75 68 51 40 30 24 24 26 27 31 32 36 37 38 42 43 48 52 53 49 51 52 56 59 54 54 57 59 61 59 58 56 54 54 57 55 57 60 51 51 50 50 49 46

GFSSW_250_spd_078.txt.gz
Wind_Speed
42 42 43 43 43 43 42 42 41 40 38 38 39 38 37 36 36 35 36 37 36 34 32 32 32 32 34 34 36 38 39 41 40 37 36 41 43 45 28 42 45 45 50 55 62
45 47 46 46 45 45 45 46 45 44 43 42 43 44 43 41 40 41 38 39 39 39 36 34 36 34 35 36 36 38 40 39 40 39 37 38 42 40 30 26 38 39 47 53 59
53 52 51 50 49 51 51 51 51 50 48 47 48 47 48 46 45 44 43 41 41 42 42 39 37 38 39 38 40 40 41 39 40 39 38 37 40 40 30 26 32 37 43 48 55
56 57 59 59 58 57 57 56 55 55 54 54 54 52 51 51 48 48 47 45 44 45 45 43 42 40 41 41 40 43 43 42 41 40 40 38 40 41 39 32 35 35 39 45 51
61 62 61 62 64 65 65 64 64 61 59 57 57 58 57 56 54 53 52 51 48 47 45 45 44 44 44 43 42 43 44 44 43 42 40 38 39 42 40 34 34 33 37 42 47
69 69 69 70 69 69 69 71 70 68 67 67 65 63 60 61 59 58 57 55 54 51 50 49 49 49 47 47 45 44 47 47 46 45 41 38 39 40 39 35 32 34 36 41 44
74 75 76 77 78 79 78 77 77 77 77 76 72 70 67 67 65 63 61 61 59 58 56 54 52 51 51 50 49 47 49 51 48 45 42 39 41 39 40 36 33 33 34 38 41
77 79 79 81 83 85 85 85 84 85 84 83 82 79 73 75 71 70 68 66 63 60 60 59 56 53 51 49 51 50 51 50 48 45 41 42 42 42 43 35 32 32 33 36 38
80 82 83 85 86 87 88 90 92 92 91 90 89 87 82 82 78 77 74 71 70 66 61 59 58 55 52 49 50 52 50 47 46 44 43 44 45 46 42 35 28 31 34 36 36
62 64 70 72 75 81 89 92 96 100 99 96 93 88 89 86 87 85 80 77 74 72 68 63 60 58 54 52 52 54 50 46 46 44 45 45 47 47 45 35 29 28 34 34 37
51 47 47 54 61 68 74 80 86 94 97 100 99 97 92 93 90 85 85 84 82 76 70 70 66 60 61 58 56 55 54 52 52 49 47 48 48 46 39 38 38 35 33 37 38
47 47 53 53 57 56 63 65 74 83 85 90 96 101 96 102 95 89 87 84 83 80 76 74 68 67 68 63 58 57 56 54 53 51 48 49 50 45 42 40 41 42 35 38 38
44 46 51 52 51 54 59 66 67 76 65 79 81 95 94 106 99 95 94 87 85 83 80 76 70 72 72 68 63 59 59 56 54 52 48 48 48 44 46 45 44 43 44 40 37
46 48 49 53 53 59 63 65 64 65 60 61 76 81 89 99 104 95 96 91 87 83 81 78 74 73 75 70 65 63 63 58 53 47 49 49 44 47 49 51 49 49 46 46 42
45 50 50 55 58 61 63 62 68 61 55 59 68 79 85 93 97 100 100 101 90 87 87 77 76 74 72 66 65 62 63 58 52 50 52 46 50 51 51 55 57 55 51 48 50
49 52 52 56 62 62 64 58 69 75 70 63 65 80 87 89 89 97 107 105 95 95 92 84 80 75 73 68 64 61 61 59 55 55 55 49 54 50 54 56 59 59 63 50 52
50 53 56 60 61 64 63 58 46 65 68 63 64 73 83 87 91 94 105 108 102 99 95 88 85 81 78 73 69 66 65 64 62 59 55 57 57 57 58 58 59 59 65 58 51
51 55 56 62 63 61 66 63 57 58 62 59 63 68 75 85 93 94 99 108 107 100 98 97 92 85 83 78 74 72 71 67 64 61 62 63 62 60 63 63 62 63 61 55 53
53 57 62 63 67 66 65 64 57 57 54 55 55 58 66 69 80 88 95 97 105 104 99 99 96 93 89 84 79 77 72 69 70 68 67 65 67 69 69 70 65 63 55 54 54
56 62 66 69 69 67 67 67 57 52 48 42 45 51 52 56 62 72 83 88 92 103 102 99 98 97 93 92 87 82 78 75 73 71 68 67 71 76 70 76 71 56 61 57 55
61 64 69 70 68 67 68 66 52 43 35 36 45 47 48 53 66 67 71 74 80 91 101 100 102 97 94 95 90 86 83 79 78 76 73 71 77 74 80 78 74 61 58 60 59
66 69 73 74 73 68 63 61 50 42 34 37 36 36 40 47 51 61 68 71 78 80 87 97 100 98 96 94 93 87 86 85 83 78 77 76 79 77 76 74 72 66 65 65 59
71 72 77 76 73 70 64 57 46 39 29 31 29 31 38 41 46 47 60 60 66 70 80 86 97 100 95 95 95 86 85 84 83 80 76 75 78 71 71 66 76 74 69 58 60
73 75 79 78 78 73 64 53 44 36 29 27 25 26 32 36 41 51 56 57 55 61 63 67 73 81 87 88 85 86 85 84 83 80 75 75 72 75 67 71 80 63 58 58 51
76 77 78 78 77 73 64 51 40 33 28 26 23 23 25 32 39 46 50 51 58 60 53 55 60 67 72 76 81 83 84 84 83 79 77 76 74 64 47 35 47 59 54 53 51
76 78 79 78 76 70 60 47 39 28 26 24 25 23 22 25 32 39 46 48 54 53 50 49 48 50 50 56 61 69 74 75 77 72 71 68 70 66 62 70 80 75 64 58 60
78 78 78 77 74 67 57 46 36 26 25 23 25 23 26 24 28 35 35 41 47 49 44 40 40 42 37 41 43 46 46 47 52 57 62 66 70 65 58 60 68 70 66 60 51

GFSSW_250_spd_084.txt.gz
Wind_Speed
38 39 40 39 40 41 43 42 43 44 44 43 42 42 43 41 40 39 40 39 39 38 39 40 41 38 39 40 41 40 39 42 43 41 41 43 38 36 37 41 36 34 38 44 48
44 44 43 43 44 44 45 45 46 47 48 47 47 47 47 46 46 46 44 45 45 46 45 44 45 45 42 43 43 41 40 40 42 41 41 41 44 38 34 36 33 31 34 40 44
46 49 50 49 49 50 50 50 49 49 51 52 53 53 52 51 52 50 49 50 50 50 50 47 48 48 47 46 45 45 44 42 43 42 41 42 45 39 31 33 31 29 31 36 39
50 49 49 51 51 53 56 55 55 56 55 53 54 54 55 55 57 55 54 53 52 52 51 51 50 51 49 46 46 46 47 46 45 47 41 40 41 40 29 31 32 25 26 31 34
53 52 53 54 56 57 57 58 59 60 59 60 59 58 58 58 60 58 57 56 55 52 52 51 53 50 50 47 48 48 48 49 47 48 45 41 42 38 31 29 29 21 23 27 29
53 55 60 61 62 63 63 64 64 64 63 63 63 63 62 64 65 63 66 62 59 58 58 56 56 54 52 50 51 48 49 50 51 51 49 42 38 35 32 28 26 19 21 24 26
58 60 62 64 66 67 68 69 70 70 71 70 70 69 66 73 71 70 72 69 69 66 65 64 64 59 58 53 55 51 52 54 54 51 49 46 42 35 35 33 27 22 18 20 21
63 64 64 66 67 69 70 72 71 74 76 75 75 75 75 83 79 77 79 80 76 77 74 70 70 66 63 63 60 54 56 56 53 51 51 47 45 35 38 37 31 28 18 16 15
59 59 63 65 68 70 73 74 71 74 74 75 75 78 73 84 84 85 84 87 87 84 84 81 77 75 74 71 68 62 64 61 57 54 54 50 48 42 38 37 33 29 28 15 16
35 37 39 42 46 52 52 55 60 58 58 59 59 62 61 67 76 80 83 85 87 88 86 84 84 80 78 76 67 70 69 63 59 58 56 53 51 51 39 37 31 29 28 24 17
35 37 40 41 45 49 53 57 58 62 62 62 65 64 65 66 65 66 71 73 85 88 86 92 87 82 80 80 72 71 64 63 59 61 60 57 55 51 45 41 34 32 29 24 19
37 40 43 45 48 50 52 54 52 53 56 70 64 64 67 71 65 66 73 70 72 68 77 90 88 81 85 84 79 77 71 65 64 62 58 57 52 51 50 44 41 35 30 26 21
39 41 45 47 50 51 55 58 59 55 53 60 66 66 69 71 69 72 78 76 71 71 69 80 77 92 89 86 80 76 73 68 65 65 59 58 51 49 52 46 41 34 28 27 21
41 44 46 47 50 52 55 56 56 57 60 60 62 67 71 75 75 81 85 80 76 72 77 71 76 88 87 88 85 78 73 73 70 68 61 59 50 49 54 46 40 34 29 28 23
42 45 45 48 50 53 54 54 54 54 56 59 61 68 75 79 79 79 88 81 77 83 83 72 77 83 88 83 91 82 80 76 73 68 63 61 56 57 57 48 41 36 32 29 26
41 43 44 49 51 52 53 54 52 53 57 61 66 71 76 78 73 70 76 73 72 78 76 72 75 80 81 89 93 90 87 81 75 69 62 64 66 60 57 52 43 37 37 35 31
44 45 48 50 52 52 53 55 54 55 58 62 68 75 71 73 66 62 62 67 69 77 68 64 69 74 80 87 93 93 91 86 77 69 59 76 68 62 59 54 46 43 38 36 38
48 50 49 52 53 55 55 56 58 58 61 64 71 74 62 62 53 54 51 52 60 63 61 63 71 73 76 82 93 96 93 88 79 73 68 78 63 65 59 53 50 47 40 42 42
53 53 52 54 54 56 56 58 59 61 63 69 73 74 62 55 48 44 44 47 49 57 62 66 69 79 82 81 91 96 97 87 85 78 75 72 66 67 64 55 52 49 46 46 47
54 57 55 56 56 57 58 59 63 64 67 71 74 73 65 54 42 40 35 43 50 60 69 78 80 83 82 86 89 96 97 98 89 83 76 75 72 70 66 59 54 52 47 47 49
56 57 58 59 57 60 64 66 69 69 68 72 74 69 66 57 45 40 37 37 44 52 57 58 56 68 75 82 85 89 94 95 91 85 78 76 79 72 68 61 58 54 53 51 52
57 56 58 62 62 65 68 70 73 73 71 73 74 64 59 55 50 40 37 35 36 36 44 47 43 49 54 66 71 78 86 94 92 84 81 82 84 76 70 64 60 57 56 55 54
57 60 63 62 64 67 68 72 75 75 73 72 69 66 59 49 45 40 34 34 29 28 28 29 31 38 42 50 64 69 74 81 87 86 85 83 81 77 70 67 66 62 58 57 56
61 63 67 66 68 70 70 72 76 73 72 70 65 63 58 43 36 35 30 35 31 31 23 25 29 28 31 34 44 52 54 64 75 83 81 82 83 79 75 73 70 66 64 60 54
65 68 70 72 72 72 71 73 76 72 71 67 64 62 53 40 35 31 27 31 29 23 26 18 17 25 33 35 36 37 36 48 60 72 79 79 81 78 73 71 66 64 62 59 55
69 70 72 75 75 74 73 74 74 70 69 66 65 58 47 33 27 26 28 27 31 16 18 23 30 22 25 28 28 28 33 32 39 36 46 57 69 74 72 72 70 70 68 65 61
74 74 76 77 77 76 74 75 74 71 67 66 63 56 45 30 25 25 23 27 29 30 27 33 36 20 31 31 29 30 26 30 34 28 32 38 43 35 27 38 47 56 60 59 53

GFSSW_250_spd_087.txt.gz
Wind_Speed
36 36 37 38 39 39 40 40 41 41 42 43 43 45 46 46 46 48 48 48 48 46 43 42 43 46 46 45 44 44 42 40 40 42 42 41 39 42 31 34 32 34 36 41 37
41 42 42 42 43 43 44 44 44 44 46 46 47 47 48 48 49 51 51 51 51 51 51 49 47 46 46 45 43 44 43 41 41 42 43 40 38 39 31 32 32 29 32 35 35
42 44 45 46 46 46 46 47 48 48 50 51 52 51 50 52 54 55 54 54 54 54 55 52 50 49 47 45 43 46 42 43 44 44 45 46 43 38 32 33 30 25 29 31 31
43 44 46 48 49 50 50 49 50 52 53 53 54 54 55 55 56 57 57 57 58 58 56 56 53 54 51 48 45 44 44 45 46 43 46 45 43 38 29 32 31 25 25 28 30
43 45 47 50 52 54 55 55 55 55 57 57 56 58 60 62 65 62 64 63 61 60 60 59 58 60 56 50 46 50 45 49 46 44 47 45 43 39 33 32 30 29 22 23 25
49 52 53 54 55 56 56 58 60 64 64 64 65 66 66 67 67 66 68 69 66 67 66 67 65 63 61 56 51 55 50 54 50 47 47 44 42 44 38 36 31 29 24 21 18
53 54 56 57 58 59 59 61 62 65 66 68 69 69 70 78 74 73 75 76 78 73 73 71 71 66 64 62 58 60 58 61 57 53 50 51 45 44 45 38 35 28 22 20 17
58 61 62 63 65 66 66 68 70 69 69 69 69 70 71 77 77 80 78 79 81 80 79 77 74 73 71 70 66 66 63 68 63 61 55 52 51 47 42 40 37 35 25 19 15
54 52 50 45 45 46 45 48 48 46 48 54 55 54 54 61 65 73 73 77 77 78 81 84 80 79 76 73 73 69 66 72 69 66 60 54 53 46 40 40 40 37 32 24 21
28 28 28 30 33 35 37 38 40 43 48 49 48 50 54 59 63 63 62 62 66 71 76 81 80 78 77 77 70 72 72 74 69 69 63 57 53 49 42 42 41 35 33 30 24
29 30 31 32 35 37 40 43 45 48 53 51 52 48 53 56 58 65 69 65 65 64 64 67 64 66 76 76 75 77 74 72 71 72 64 62 55 51 45 45 40 38 31 30 28
28 31 33 35 38 40 44 45 46 47 59 52 54 54 50 53 54 62 69 69 69 68 71 68 58 64 70 69 72 78 76 70 74 74 67 66 60 57 50 48 42 38 34 28 26
29 31 35 36 40 43 45 46 48 51 53 55 54 56 55 53 53 59 66 68 71 71 74 70 61 73 74 70 64 66 69 75 76 81 73 68 60 62 54 50 47 41 36 29 28
31 33 38 37 42 44 45 47 50 53 55 55 56 54 55 53 57 63 68 72 73 75 78 71 69 73 79 73 70 64 64 78 80 84 78 73 61 60 60 55 54 43 37 31 29
35 37 40 42 43 47 48 52 53 55 58 56 58 57 57 58 61 72 72 75 80 85 87 77 80 77 79 74 84 68 76 74 83 87 83 71 63 55 60 65 57 45 39 36 30
40 43 44 48 49 51 51 53 55 57 60 58 57 57 57 61 65 66 70 78 83 82 78 72 78 78 73 76 85 77 83 81 77 82 82 72 69 56 68 66 56 49 44 40 34
48 48 49 52 52 53 55 54 55 57 59 58 59 59 59 65 71 69 66 64 62 61 61 65 69 72 69 74 81 77 81 80 79 76 74 80 72 58 71 64 57 51 46 43 42
53 51 53 56 56 54 55 55 54 55 59 61 64 64 63 66 72 70 63 55 51 48 53 57 61 62 67 71 80 79 80 78 76 75 77 84 69 65 71 65 60 54 49 46 45
60 57 57 59 57 57 56 56 55 57 61 67 69 71 70 68 71 71 63 52 48 44 45 52 53 63 70 71 77 78 78 76 76 74 75 80 76 78 72 69 64 56 51 46 45
62 60 61 61 60 60 59 58 59 62 64 70 73 75 74 73 66 70 67 54 45 39 38 38 43 51 59 66 75 78 76 77 74 75 75 77 80 80 74 70 65 59 54 50 46
65 64 64 63 61 60 62 61 61 64 67 71 75 77 75 75 68 66 63 56 46 35 34 33 38 50 52 56 61 72 75 75 75 72 73 77 80 84 78 72 69 62 56 52 49
67 68 67 65 61 62 64 63 64 67 69 74 77 77 72 71 72 66 61 54 42 34 30 32 34 42 44 40 51 61 66 73 73 75 70 75 78 83 78 74 70 65 59 56 55
70 70 68 66 64 65 66 65 67 70 72 76 77 77 73 67 70 63 60 51 39 32 29 27 33 37 37 41 48 55 57 67 72 72 70 76 74 78 79 76 72 66 62 60 57
71 70 69 67 66 66 68 68 70 71 76 78 79 77 73 69 63 65 58 49 39 30 26 25 28 32 29 29 34 37 45 54 57 69 65 67 72 73 74 74 72 68 65 62 61
73 71 70 69 66 67 69 71 72 74 76 78 79 76 72 69 63 61 56 50 36 27 23 21 30 36 34 26 17 29 30 43 49 55 54 52 58 65 68 69 68 69 64 56 55
74 72 71 71 69 69 71 74 75 77 78 81 76 77 70 67 64 58 51 43 37 23 20 22 33 33 34 25 22 29 29 34 42 45 39 47 53 55 58 62 65 63 54 41 35
76 75 73 74 72 73 74 76 78 80 80 81 77 75 69 65 61 55 44 37 33 24 24 29 34 25 32 32 30 35 33 32 30 30 37 35 39 49 51 47 54 53 30 25 26

GFSSW_250_spd_093.txt.gz
Wind_Speed
29 29 29 31 33 35 36 37 38 40 42 42 43 44 46 46 47 47 46 45 46 44 43 44 45 45 42 42 41 40 41 42 43 39 35 34 35 32 34 35 38 37 34 31 33
33 33 33 34 36 39 41 41 43 45 45 47 48 49 49 49 50 51 50 50 50 51 51 50 50 50 50 48 46 44 44 44 45 43 39 35 35 35 34 34 36 38 33 30 29
37 37 38 38 38 39 41 43 45 46 47 47 47 48 49 51 51 53 50 51 52 52 51 49 49 49 48 48 45 44 45 43 46 46 45 39 37 35 36 34 35 36 31 28 25
36 38 39 38 38 39 42 45 45 46 48 50 51 51 53 54 54 55 58 58 57 56 55 54 52 53 52 50 48 45 45 46 47 47 45 42 39 37 37 35 36 36 31 25 24
37 38 40 42 44 44 45 48 49 49 52 54 57 59 61 59 58 60 60 61 62 63 62 61 60 57 54 54 50 49 50 46 48 48 45 44 42 37 37 39 37 37 31 24 19
41 42 43 45 46 48 50 50 52 54 57 58 58 58 60 53 55 56 58 60 60 61 61 61 62 62 61 61 57 53 51 50 49 53 47 45 44 39 38 39 38 37 32 23 20
42 44 46 47 47 50 53 53 55 53 50 47 44 43 44 39 40 41 42 44 46 48 51 50 51 54 54 55 54 54 55 53 53 55 51 48 49 42 41 40 38 37 35 27 20
47 50 52 54 51 50 49 47 43 36 32 33 35 36 41 42 40 41 41 42 44 46 47 48 46 47 50 54 53 49 45 53 58 58 57 50 49 47 42 41 39 38 36 33 18
50 47 48 49 47 46 38 33 34 36 34 35 36 38 41 45 44 45 47 48 48 49 48 48 46 44 46 48 49 48 45 45 56 61 63 55 48 53 44 45 41 40 38 35 24
45 41 34 30 29 32 31 30 28 27 31 33 36 37 41 45 49 51 51 54 55 54 52 52 49 47 44 48 48 50 49 48 48 55 58 52 48 51 47 40 46 41 40 37 34
28 28 28 27 25 23 22 23 25 27 32 34 38 40 42 46 49 53 56 57 56 54 54 53 52 53 53 52 50 50 51 52 54 58 53 52 47 51 52 42 45 44 42 40 38
23 21 22 21 21 22 24 26 29 31 34 39 41 43 46 47 46 50 53 55 55 55 55 56 58 60 61 62 61 57 53 53 59 65 56 57 41 43 52 47 44 45 43 42 40
19 18 19 20 22 25 28 32 34 35 36 41 44 45 48 50 50 51 52 52 53 54 56 58 62 65 69 71 71 67 64 62 63 66 61 60 46 43 43 49 46 45 45 43 42
22 22 24 26 29 31 33 36 39 42 40 44 47 48 49 52 51 53 54 53 54 55 57 61 65 70 74 77 76 70 73 75 73 68 63 62 49 45 42 42 50 48 49 46 43
30 30 33 34 35 37 39 42 44 46 46 48 50 52 53 53 54 56 56 56 57 59 62 67 69 73 78 76 74 67 75 77 77 73 65 62 49 51 45 40 47 51 51 50 46
37 39 39 42 43 43 44 46 48 50 52 53 56 57 60 58 56 57 58 55 58 62 64 69 71 76 72 66 66 65 69 70 70 70 68 59 55 51 50 45 43 52 52 54 50
43 44 46 46 47 48 48 50 52 56 56 58 60 62 64 64 62 61 61 59 58 62 68 72 75 76 65 60 57 57 61 63 63 67 66 64 57 45 52 49 48 45 53 57 52
48 49 50 50 52 52 53 53 54 55 59 61 64 66 68 68 68 66 63 62 62 64 68 72 77 74 61 52 48 46 50 55 57 60 61 64 55 46 52 52 51 47 46 53 52
53 53 54 55 55 56 57 56 57 60 63 66 67 72 72 72 71 69 66 68 68 66 68 73 79 75 60 50 44 38 43 47 50 52 55 61 53 52 51 56 54 51 51 51 55
58 59 60 60 60 59 60 59 60 64 66 69 71 74 73 74 73 70 70 72 70 69 70 75 81 76 61 51 43 35 35 43 49 50 51 52 55 58 61 64 59 56 58 52 52
60 61 62 62 62 61 61 62 64 66 69 71 73 74 73 75 74 73 74 73 73 74 73 76 80 77 64 51 43 35 33 38 45 43 45 45 46 57 62 61 57 58 60 54 54
63 63 64 65 64 64 64 65 68 70 72 74 76 74 75 73 77 75 76 75 72 73 78 78 75 71 65 53 41 35 32 34 40 43 38 38 40 54 58 58 58 59 58 56 56
68 68 68 68 69 69 69 71 73 74 75 76 76 76 77 75 75 76 77 77 75 74 78 79 73 64 60 55 41 30 31 35 36 41 41 39 44 55 57 59 59 59 58 58 59
71 71 72 71 73 73 73 75 78 79 79 80 77 78 77 76 75 75 77 79 78 77 78 74 70 61 56 51 39 30 31 35 35 36 41 39 50 52 55 58 59 60 59 58 59
76 76 76 76 77 78 78 80 83 83 83 83 81 80 78 77 77 76 75 79 81 79 78 67 63 57 55 46 34 28 29 31 32 35 33 44 53 55 54 55 57 60 58 55 55
80 80 80 82 82 82 83 85 86 86 85 83 83 83 82 78 78 79 78 78 82 81 74 62 57 51 51 41 32 24 22 22 27 24 31 38 48 53 52 54 55 57 57 54 53
86 86 85 85 86 86 86 86 87 87 87 86 87 85 81 81 80 80 82 82 81 81 69 59 50 48 44 33 25 17 16 20 15 9 16 29 40 46 48 51 53 54 54 54 53

GFSSW_250_spd_096.txt.gz
Wind_Speed
27 27 29 28 29 31 33 34 35 37 38 40 41 41 43 43 43 44 43 42 43 43 42 43 42 41 42 40 38 37 39 39 40 36 32 31 30 30 29 29 30 32 32 27 26
27 29 31 33 34 36 37 37 38 39 40 42 44 45 46 47 46 46 46 45 45 46 45 45 45 44 42 43 40 37 39 40 41 39 34 32 32 29 29 29 29 29 31 25 23
31 32 34 35 37 39 39 39 39 40 41 42 44 46 48 49 50 53 52 51 50 50 50 49 49 50 49 46 45 43 41 44 43 42 37 35 32 30 27 28 30 28 28 26 21
32 32 33 35 36 37 39 40 42 45 46 47 48 49 50 51 53 52 51 50 48 48 48 48 48 50 51 50 48 49 49 45 43 45 41 38 34 34 27 27 29 29 29 26 20
36 37 39 40 41 42 42 44 46 47 49 49 50 51 49 47 43 42 37 36 36 38 37 37 37 37 39 42 42 43 48 46 47 45 47 41 38 35 30 31 29 29 29 25 22
39 41 42 42 43 44 45 46 47 48 49 48 46 43 33 32 33 34 37 39 39 38 38 38 39 41 43 43 44 45 43 43 43 47 49 47 43 39 34 33 31 28 28 26 21
43 43 42 42 43 46 49 49 48 47 45 39 33 35 34 34 34 36 35 35 37 39 39 38 37 39 38 39 40 42 42 43 44 44 46 47 45 46 38 34 33 30 29 28 22
41 44 46 46 48 48 47 45 41 33 30 34 34 32 31 31 34 35 35 36 38 40 41 43 43 40 38 39 39 38 39 43 45 46 47 45 45 51 42 39 34 31 30 29 28
44 48 49 48 45 43 34 27 26 27 26 25 26 28 31 32 34 38 39 39 41 43 44 46 44 43 39 38 37 38 38 40 43 41 45 44 42 48 46 43 38 37 33 30 28
49 50 50 45 33 27 28 24 20 18 19 22 25 28 32 36 38 40 42 42 43 45 46 47 46 44 44 44 42 42 43 46 43 47 42 45 43 40 48 46 45 41 38 34 28
47 42 34 27 26 22 21 19 17 19 22 25 29 31 33 37 40 42 45 46 47 49 51 50 49 50 49 47 47 49 50 51 50 49 50 46 45 44 44 45 47 46 43 39 34
26 25 23 22 21 20 19 20 22 24 28 31 33 35 37 38 41 45 49 51 51 53 54 53 54 54 53 54 53 56 58 59 60 56 59 54 46 44 43 49 46 47 48 45 40
22 21 21 20 21 22 24 27 29 30 33 36 39 40 41 42 43 46 51 53 53 56 57 57 57 55 57 56 57 59 64 67 69 70 67 59 51 48 48 47 44 43 52 50 46
24 22 22 23 25 28 31 33 36 38 39 41 42 42 44 46 47 50 54 57 57 60 58 57 59 57 57 59 61 61 70 73 75 73 66 64 48 53 46 51 47 43 47 54 51
27 27 29 30 32 35 37 39 41 44 44 46 46 47 47 48 50 54 57 59 61 62 61 62 60 61 62 64 63 66 73 76 70 67 58 56 49 54 52 51 50 48 47 54 56
33 34 35 37 39 41 42 44 45 47 49 49 49 49 48 50 52 56 59 63 63 64 64 63 63 63 63 63 66 70 71 68 62 59 54 49 46 52 58 54 52 51 51 51 58
40 41 42 43 44 45 47 48 48 51 52 52 53 53 52 53 53 56 60 64 66 67 66 67 68 67 67 69 70 72 68 56 53 50 46 46 48 44 57 55 55 56 53 49 50
46 47 48 49 49 49 51 52 53 55 57 57 56 55 56 56 58 60 63 66 66 69 68 70 73 71 72 72 71 72 64 48 44 36 38 43 39 43 56 62 59 57 54 50 45
50 51 52 53 53 54 55 56 57 59 59 58 57 57 58 60 63 65 67 70 69 69 71 70 73 77 77 77 75 72 60 44 37 30 34 39 34 48 54 65 60 56 55 53 48
53 55 56 58 58 58 58 59 59 60 60 60 59 61 62 64 66 69 72 73 72 71 72 71 72 76 81 79 79 72 57 44 36 26 27 36 37 46 54 64 60 60 58 56 53
60 61 63 63 63 63 62 61 61 62 62 62 63 64 66 69 71 74 77 76 74 75 74 71 73 77 81 81 82 70 52 44 33 24 25 29 33 46 55 59 64 63 60 58 58
68 68 68 67 66 64 64 64 64 64 63 65 65 67 69 73 77 79 80 78 76 77 76 71 73 76 79 80 81 67 50 43 31 24 25 22 36 47 54 58 64 62 61 59 60
73 73 72 70 69 68 67 67 67 66 67 68 69 71 74 77 79 82 81 81 79 79 75 73 73 75 78 82 74 65 49 42 31 22 23 21 39 45 54 58 63 65 66 63 62
77 76 75 73 73 72 71 71 72 72 71 72 73 76 77 79 80 82 83 83 81 79 75 74 74 77 79 77 67 56 46 39 29 23 18 29 40 45 50 56 63 66 66 65 66
81 79 78 77 76 75 75 76 76 75 76 77 78 78 79 81 82 83 82 85 83 78 75 74 75 78 80 74 62 51 43 33 28 22 19 25 35 38 48 51 58 63 63 65 63
84 83 82 81 81 81 80 80 80 80 81 82 83 81 82 83 84 85 84 83 81 77 75 77 77 80 74 68 56 44 38 29 25 21 18 27 25 36 41 51 54 60 64 63 59
90 89 87 86 87 86 85 85 85 85 85 84 84 85 84 85 86 86 83 82 79 78 79 79 79 76 65 60 48 40 33 25 20 18 21 23 26 33 39 50 56 58 59 60 63